    Orbital elements:
    2012 FY23                                                Earth MOID = 0.0846 AU
    Epoch 2020 May 31.0 TT = JDT 2459000.5                  Veres
    M  50.82458              (2000.0)            P               Q
    n   0.26285285     Peri.   42.24898     -0.40778598     +0.90472617
    a   2.4135757      Node   204.47372     -0.89693806     -0.42217354
    e   0.5812602      Incl.   17.30240     -0.17091729     +0.05692148
    P   3.75           H   20.0           G   0.15           U   0
    Residuals in seconds of arc
    120322 E12  0.1+  0.1+    120411 089  0.1+  0.3-    120422 703  0.2+  0.0
    120322 E12  0.0   0.2-    120411 089  0.1-  0.0     120423 H47  0.0   0.0
    120322 E12  0.3-  0.3-    120411 089  0.0   0.1+    120423 H47  0.0   0.2-
    120322 E12  0.3-  0.0     120411 089  0.1+  0.1-    120423 H47  1.1-  0.1-
    120322 E12  0.5+  0.3+    120411 089  0.1-  0.1+    120423 H47  0.3-  0.1-
    120322 E12  0.1+  0.4+    120411 089  0.1+  0.4-    120423 C73 (3.2+  3.8+)
    120323 807  0.1-  0.0     120411 089  0.0   0.2-    120423 C73 (2.9+  3.3+)
    120323 807  0.1-  0.1-    120411 089  0.2-  0.6-    120423 C73 (3.2+  3.5+)
    120323 807  0.1-  0.1-    120411 089  0.1-  0.4-    120423 C73 (2.8+  2.7+)
    120323 807  0.1+  0.2-    120412 H21  0.0   0.1+    120423 C73 (2.1+  1.5+)
    120323 807  0.1-  0.1-    120412 H21  0.0   0.1+    120423 C73 (2.8+  2.2+)
    120323 291  0.2+  0.3+    120412 H21  0.1+  0.1+    120423 C73 (2.9+  4.1+)
    120323 291  0.4+  0.4+    120412 H21  0.2+  0.2+    120423 C73 (3.0+  2.6+)
    120323 291  0.3+  0.3+    120412 H21  0.0   0.1+    120423 C73 (2.9+  2.5+)
    120323 E12  0.0   0.1-    120412 H21  0.0   0.2+    120423 C73 (3.3+  2.9+)
    120323 E12  0.2-  0.0     120412 H21  0.1+  0.2+    120423 C73 (3.1+  3.1+)
    120323 E23  0.0   0.3-    120413 704  0.5+  0.4+    120423 C73 (2.2+  2.6+)
    120323 E23  0.9+  0.1+    120413 704  0.0   0.8+    120423 C73 (2.8+  2.3+)
    120323 E23  0.7+  0.4-    120413 704  0.7+  0.5+    120423 C73 (2.4+  2.5+)
    120323 E12  0.2+  0.1-    120415 H45  0.0   0.1-    120423 C73 (1.8+  1.5+)
    120324 I47  0.5+  0.2-    120415 H45  0.1-  0.0     120423 C73 (2.7+  4.0+)
    120324 I47  0.3+  0.2+    120415 H45  0.3-  0.2-    120423 C73 (2.3+  2.4+)
    120324 I47  0.7+  0.1-    120415 H45  0.1+  0.2-    120423 C73 (2.4+  2.3+)
    120324 I47  0.5+  0.0     120415 H45  0.5-  0.3-    120424 703  0.4-  0.1-
    120324 291  0.4+  0.3+    120415 H45  0.2+  0.1+    120424 703  0.3-  0.1+
    120324 291  0.2+  0.7+    120415 H45  0.2-  0.2-    120424 703  0.5-  0.2+
    120324 291  0.3+  0.2+    120415 703  0.0   0.2+    120424 703  0.1-  0.2+
    120324 807  0.1-  0.0     120415 703  0.0   0.3+    120425 H45  0.4-  0.1+
    120324 807  0.1-  0.1-    120415 703  0.4+  0.1-    120425 H45  0.1+  0.0
    120324 807  0.2-  0.2-    120415 703  0.0   1.0+    120425 H45  0.2+  0.1+
    120324 807  0.0   0.1-    120415 J84  0.0   0.0     120425 H45  0.0   0.1-
    120324 807  0.2-  0.1-    120415 J84  0.0   0.1+    120425 H45  0.0   0.1+
    120324 807  0.2-  0.1-    120415 J84  0.1+  0.1-    120425 H45  0.1+  0.2+
    120324 807  0.0   0.2-    120418 H45  0.2+  0.0     120425 H45  0.1-  0.1+
    120325 807  0.1-  0.1-    120418 H45  0.4+  0.0     120425 H45  0.0   0.0
    120325 807  0.0   0.1-    120418 H45  0.1+  0.2+    120426 089  0.0   0.1+
    120325 807  0.1-  0.2-    120418 H45  0.0   0.0     120426 089  0.1-  0.1-
    120325 807  0.1-  0.1-    120418 H45  0.2+  0.0     120426 089  0.2-  0.0
    120325 E12  0.0   0.2-    120418 H45  0.1+  0.0     120426 089  0.4-  0.0
    120325 E12  0.1-  0.2-    120418 H45  0.1-  0.0     120426 089  0.6-  0.0
    120326 807  0.1-  0.0     120419 H45  0.2+  0.2+    120426 089  0.2-  0.2+
    120326 807  0.0   0.1-    120419 H45  0.3-  0.0     120426 089  0.2-  0.2-
    120326 807  0.0   0.0     120419 H45  0.3-  0.0     120426 089  0.2-  0.5-
    120326 807  0.1-  0.1-    120419 H45  0.3-  0.4-    120426 089  0.3-  0.2-
    120327 807  0.1-  0.2+    120419 H45  0.4-  0.1-    120426 089  0.4-  0.1+
    120327 807  0.3-  0.1-    120419 H45  0.1-  0.1-    120426 089  0.3-  0.2+
    120327 807  0.1-  0.3-    120419 H45  0.3-  0.1-    120426 089  0.2-  0.0
    120327 807  0.3-  0.1-    120419 850  0.6+  0.0     120426 089  0.0   0.0
    120328 E12  0.1-  0.0     120419 850  0.4+  0.4-    120426 089  0.4+  0.3-
    120328 E12  0.1-  0.1-    120419 850  0.1-  0.2-    120426 089  0.0   0.4+
    120329 807  0.2-  0.1-    120419 850  0.2+  0.5-    120426 089  0.3-  0.4+
    120329 807  0.3-  0.1-    120419 H47  0.1-  0.1-    120427 089  0.1-  0.2+
    120329 807  0.1-  0.1-    120419 H47  0.1-  0.0     120427 089  0.1-  0.0
    120329 807  0.2-  0.2-    120419 H47  0.3+  0.1+    120427 089  0.0   0.1+
    120329 807  0.3-  0.2-    120420 C77  0.6+  1.0+    120427 C47  0.8+  0.5+
    120329 807  0.1+  0.2-    120420 C77 (1.6+  0.8+)   120427 C47  0.2-  0.2+
    120330 E12  0.1-  0.2-    120420 C77  1.2+  0.8+    120427 C47  0.2-  0.2+
    120330 E12  0.1-  0.0     120420 C77  0.2-  0.3-    120427 C47  0.1-  0.5-
    120330 E12  0.2-  0.1+    120420 C77 (2.2+  2.9+)   120427 C47  0.3-  0.3-
    120330 E12  0.0   0.0     120420 C77  0.2-  1.1-    120427 C47  0.1-  0.3-
    120401 844  0.2+  0.0     120420 C77 (1.3+  1.5+)   120428 C47  0.8+  0.2+
    120401 844  0.1-  0.1+    120421 A24  0.8+  0.2+    120428 C47  0.4-  0.0
    120401 844  0.7+  0.2-    120421 A24  0.6+  0.2+    120428 C47  0.2+  0.0
    120401 844  0.7+  0.5-    120421 A24  0.6+  0.1+    120428 C47  0.6-  0.5-
    120401 844  0.6-  0.1-    120421 A24  0.7+  0.2+    120428 C47  0.2-  0.2-
    120401 844 (1.6+  0.5-)   120421 A24  0.5+  0.1+    120428 C47  0.3-  0.3-
    120401 704  0.6+  0.5+    120421 A24  0.7+  0.5+    120428 A98 (6.0-  4.5-)
    120401 704  0.7+  0.1+    120421 A24  0.6+  0.4+    120428 A98 (6.5-  4.2-)
    120401 704  0.7+  0.2+    120421 A24  0.5+  0.5+    120428 A98 (5.5-  4.1-)
    120401 704  0.1+  0.3-    120421 A24  0.5+  0.4+    120428 A98 (5.8-  4.1-)
    120401 704  0.4+  0.7+    120421 A24  0.4+  0.4+    120428 A98 (5.2-  3.9-)
    120403 D90  0.0   0.1-    120421 A24  0.5+  0.5+    120428 A98 (5.1-  3.7-)
    120403 D90  0.2-  0.1+    120421 A24  0.5+  0.3+    120428 A98 (5.6-  4.1-)
    120403 D90  0.1-  0.1+    120421 C47  0.9-  0.2-    120428 A98 (5.1-  3.7-)
    120403 D90  0.0   0.2+    120421 C47  0.3-  0.1-    120428 A98 (5.9-  4.5-)
    120403 D90  0.1+  0.3+    120421 C47  0.6-  0.1-    120502 C73  0.2+  0.0
    120407 H21  0.1-  0.1+    120421 C47  0.4-  0.0     120502 C73  0.9+  0.1+
    120407 H21  0.1+  0.2-    120421 C47  0.3-  0.4-    120502 C73  0.6+  0.2+
    120407 H21  0.2-  0.1-    120421 C47  0.2-  0.1-    120502 C73  0.2+  0.3-
    120407 H21  0.0   0.0     120421 C47  0.5-  0.8-    120502 C73  0.8+  0.0
    120407 H21  0.1-  0.2-    120421 C47  0.1+  0.0     120502 C73  0.3+  0.2-
    120407 H21  0.0   0.1-    120421 C47  0.2-  0.0     120502 C73  0.3+  0.2-
    120408 204  0.0   0.2+    120421 C47  0.0   0.1-    120502 C73  0.7+  0.0
    120408 204  0.0   0.1+    120421 C47  0.0   0.1+    120502 C73  0.7+  0.1-
    120408 204  0.2+  0.1+    120421 C47  0.1-  0.2-    120503 A24  0.2+  0.1+
    120410 844  0.0   0.2-    120421 C47  0.0   0.1-    120503 A24  0.1+  0.1+
    120410 844  0.1-  0.2-    120422 C47  0.1-  0.2+    120503 A24  0.4+  0.0
    120410 844  0.1+  0.2-    120422 C47  0.2-  0.1-    120504 A24  0.2-  0.0
    120410 844  0.0   0.2-    120422 C47  0.2+  0.1-    120504 A24  0.3+  0.3+
    120410 844  0.1+  0.1-    120422 H45  0.2-  0.0     120504 A24  0.3+  0.3+
    120410 844  0.0   0.2-    120422 H45  0.1-  0.2+    120504 A24  0.1+  0.1+
    120410 844  0.6-  0.3+    120422 H45  0.0   0.1+    120504 A24  0.1+  0.4+
    120410 H21  0.0   0.3-    120422 H45  0.1-  0.2-    120504 A24  0.1-  0.4+
    120410 H21  0.1+  0.2-    120422 H45  0.0   0.1+    120711 H21  0.2-  0.6+
    120410 H21  0.2-  0.1-    120422 H45  0.4-  0.2+    120711 H21  0.4-  0.0
    120410 089  0.1+  0.4+    120422 H45  0.3-  0.1-    120711 H21  0.2-  0.1+
    120410 089  0.2+  0.2+    120422 H45  0.1-  0.0     120720 J04  0.1-  0.0
    120410 089  0.1+  0.3+    120422 H45  0.1-  0.1-    120720 J04  0.2-  0.0
    120410 089  0.1+  0.0     120422 H45  0.2-  0.2-    120808 H21  0.2-  0.1-
    120410 089  0.0   0.2-    120422 448  0.2-  0.0     120808 H21  0.2-  0.3-
    120410 089  0.0   0.1-    120422 448  0.2-  0.0     120808 H21  0.2-  0.1+
    120410 089  0.2-  0.0     120422 448  0.3-  0.1-    121011 H21 (2.4-  0.4+)
    120411 H21  0.1+  0.1-    120422 448  0.3-  0.0     121011 H21  1.4-  0.4+
    120411 H21  0.1+  0.0     120422 448  0.1-  0.1+    121011 H21  0.4+  0.7-
    120411 H21  0.1+  0.0     120422 703  0.2-  0.2-    190109 T12  0.0   0.0
    120411 H21  0.1+  0.1+    120422 703  0.5-  0.3+    190110 T12  0.0   0.1+
    120411 H21  0.1+  0.1-    120422 703  0.3-  0.1-
    
    Ephemeris:
    2012 FY23                a,e,i = 2.41, 0.58, 17                  q = 1.0107
    Date    TT    R. A. (2000) Decl.     Delta      r    Elong.  Phase     V
    2020 02 09    21 29 19.9 -05 30 42   2.3830  1.4195     9.5     6.6    23.1
    ...
    2020 02 24    22 12 41.1 -02 16 44   2.5096  1.5369     8.2     5.3    23.4
    ...
    2020 03 03    22 33 54.9 -00 35 03   2.5746  1.6001     8.3     5.1    23.5
    ...
    2020 03 09    22 49 04.1 +00 39 34   2.6212  1.6475     8.9     5.4    23.6
    2020 03 10    22 51 32.0 +00 51 51   2.6288  1.6554     9.1     5.4    23.6
    2020 03 11    22 53 59.0 +01 04 04   2.6362  1.6633     9.2     5.5    23.7
    ...
    2020 03 17    23 08 20.8 +02 16 19   2.6796  1.7106    10.4     6.0    23.8
    ...
    2020 03 25    23 26 39.7 +03 49 28   2.7328  1.7732    12.6     7.1    23.9
    ...
    2020 04 09    23 58 41.1 +06 32 52   2.8154  1.8889    18.1     9.5    24.3
    
